Regional Weather Roundup
Issued by NWS

Home | Current Version | Previous Version | Graphics & Text | Print | Product List | Glossary On
Versions: 1 2 3 4 5 6 7 8 9 10 11 12 13 14 15 16 17 18 19 20 21 22 23 24 25 26 27 28 29 30 31 32 33 34 35 36 37 38 39 40 41 42 43 44 45 46 47 48 49 50
000
ASUS45 KTFX 121910
RWRMT
MONTANA REGIONAL WEATHER ROUNDUP
NATIONAL WEATHER SERVICE GREAT FALLS MT
1200 PM MST FRI FEB 12 2016

NOTE: "FAIR" INDICATES FEW OR NO CLOUDS BELOW 12000 FEET WITH NO
SIGNIFICANT WEATHER AND/OR OBSTRUCTIONS TO VISIBILITY.

MTZ001>007-043-122000-
WEST OF THE DIVIDE

CITY           SKY/WX    TMP DP  RH WIND       PRES   REMARKS
KALISPELL      LGT RAIN  36  35  96 CALM      30.20R VSB 3/4
MISSOULA       FOG       38  37  97 W5        30.23S VSB 1/2
BUTTE          CLOUDY    41  34  76 NW3       30.21F
MULLAN PASS    CLOUDY    35  35 100 S7        30.17F FOG     WCI  29
ANACONDA         N/A     52  34  50 S8        30.17F
DEER LODGE       N/A     41  37  87 NE3       30.20F
HAMILTON         N/A     39  39 100 NW3       30.20S
PLAINS           N/A     43  40  89 CALM      30.20F
$$

MTZ008-052>055-122000-
SOUTHWEST MONTANA

CITY           SKY/WX    TMP DP  RH WIND       PRES   REMARKS
BOZEMAN        CLOUDY    38  33  82 CALM      30.21F
DILLON         CLOUDY    43  33  68 SE8       30.21F
ENNIS          SUNNY     50  27  40 S21G30    30.27S
TWIN BRIDGES     N/A     40  31  70 E2        30.19S
$$

MTZ009-010-012-014-046-048-049-054-122000-
EAST SLOPES AND CENTRAL MONTANA

CITY           SKY/WX    TMP DP  RH WIND       PRES   REMARKS
CUT BANK       CLOUDY    37  32  82 SE15      30.11F WCI  28
GREAT FALLS    CLOUDY    44  36  73 SE3       30.13F
MALMSTROM AFB  CLOUDY    40  37  90 NE6       30.14F
HELENA         CLOUDY    42  34  73 NW6       30.20F
CHOTEAU          N/A     41  32  70 S6        30.14F
CONRAD           N/A     40  35  82 E10       30.14F
$$

MTZ011-013-016-021-045-047-050-051-122000-
NORTH CENTRAL MONTANA

CITY           SKY/WX    TMP DP  RH WIND       PRES   REMARKS
HAVRE          CLOUDY    32  27  81 E16       30.20F WCI  21
LEWISTOWN      CLOUDY    38  31  76 SE14      30.18F WCI  30
N BAR RANCH    FOG       32  32 100 E13       30.22F VSB<1/4 WCI  22
CHINOOK          N/A     27  25  93 E18G28    30.25F WCI  13
$$

MTZ017>020-022>027-061-062-122000-
NORTHEAST MONTANA

CITY           SKY/WX    TMP DP  RH WIND       PRES   REMARKS
GLASGOW        CLOUDY    15   9  76 E18       30.40F WCI  -2
JORDAN           N/A     27  26  96 E13       30.34F WCI  16
SIDNEY         CLOUDY    18   9  68 NE7       30.50F WCI   8
WOLF POINT     CLOUDY    14   5  67 E15       30.49F WCI  -1
MALTA            N/A    N/A N/A N/A MISG      30.30
PLENTYWOOD       N/A      7  -4  61 E9        30.51F WCI  -7
POPLAR           N/A     10   3  72 E8        30.51F WCI  -1
SCOBEY           N/A     10  -8  44 NE10      30.41F WCI  -4
$$

MTZ028>42-056>058-122000-
SOUTHCENTRAL AND SOUTHEAST MONTANA

CITY           SKY/WX    TMP DP  RH WIND       PRES   REMARKS
BAKER          CLOUDY    23  16  74 SE14      30.39F WCI  11
BILLINGS       CLOUDY    38  31  76 NE10      30.23F WCI  31
LIVINGSTON     CLOUDY    49  33  54 NW17      30.18F
MILES CITY     CLOUDY    32  25  75 NE9       30.36F WCI  24
EKALAKA          N/A     28  22  78 E10       30.27  WCI  19
FORSYTH          N/A     34  27  75 E13       30.33F WCI  25
LAUREL           N/A     39  28  65 N7        30.19F
ROUNDUP          N/A     38  30  73 E3        30.14F
$$

REGIONAL REPORTS...DAKOTAS

CITY           SKY/WX    TMP DP  RH WIND       PRES   REMARKS
WILLISTON      CLOUDY    12  -2  53 E7        30.55F WCI   1
MINOT          SUNNY      9  -7  48 N5        30.60F
DICKINSON      CLOUDY    10  -3  55 E9        30.46F WCI  -3
BEACH          CLOUDY    16  14  93 SE14      30.45F WCI   1
CROSBY           N/A      9  -4  56 SE3       30.59S
TIOGA            N/A      7  -2  66 E6        30.58S WCI  -3
WATFORD CITY     N/A     14   0  52 E8        30.53F WCI   3
BISMARCK       MOSUNNY   13   1  59 NE5       30.60S
GRAND FORKS    MOSUNNY   -1 -11  62 N18       30.67F WCI -22
FARGO          MOSUNNY    2  -9  60 N17       30.65S WCI -18
BUFFALO SD       N/A     24  18  77 E10       30.33F WCI  14
RAPID CITY     FOG       27  26  96 SE8       30.40F VSB 1/4 WCI  19
$$

REGIONAL REPORTS...WYOMING/IDAHO/WASHINGTON

CITY           SKY/WX    TMP DP  RH WIND       PRES   REMARKS
GILLETTE       CLOUDY    34  29  82 S13       30.27F WCI  25
SHERIDAN       CLOUDY    42  31  64 NE3       30.25F
BUFFALO WY     CLOUDY    42  30  62 SE13      30.25F
CODY           CLOUDY    52  25  35 E6        30.20F
YELLOWSTONE LA   N/A     36  24  62 VRB3      30.33F
IDAHO FALLS    CLOUDY    28  23  81 N6        30.36S WCI  22
SALMON         CLOUDY    28  25  86 CALM      30.32F
BOISE          MOSUNNY   44  32  62 N3        30.32F
SPOKANE        CLOUDY    42  40  92 E5        30.18S FOG
$$

REGIONAL REPORTS...ALBERTA

CITY           SKY/WX    TMP DP  RH WIND       PRES   REMARKS
EDMONTON       CLOUDY    19  14  79 SE15      30.16F WCI   5
CALGARY        FOG       25  23  93 SE12      30.05F VSB 1/8 WCI  14
LETHBRIDGE     CLOUDY    41  34  75 S8        30.07F
MEDICINE HAT   CLOUDY    34  28  80 E9        30.18F WCI  26
WATERTON GATE    N/A     52  34  50 SW12G21     N/A
MILK RIVER       N/A     36  34  93 S23         N/A  WCI  24
ONEFOUR          N/A     25  25 100 E18         N/A  WCI  11
$$

REGIONAL REPORTS...SASKATCHEWAN

CITY           SKY/WX    TMP DP  RH WIND       PRES   REMARKS
SWIFT CURRENT  CLOUDY    12   3  67 SE17      30.33F WCI  -5
REGINA         PTSUNNY    9  -4  56 SE9       30.55F WCI  -5
SASKATOON      PTSUNNY    5  -6  61 SE12      30.55F WCI -11
VAL MARIE        N/A     16  12  86 SE13        N/A  WCI   2
ROCKGLEN         N/A      7  -4  61 SE13        N/A  WCI  -9
$$



USA.gov is the U.S. government's official web portal to all federal, state and local government web resources and services.